Temperature
8 8 7 7 6 6 6 6 5 5 5 5 5 5 4 4 4 4 4 4 4 4 4 4 4 4 5 5 5 5 6 6 6 6 7 7 7 7
7 7 6 6 6 5 5 5 5 5 4 4 4 4 3 3 3 4 3 3 3 3 3 3 3 4 4 4 4 4 5 5 5 5 6 6 6 6
6 6 5 5 5 5 5 4 4 4 4 4 3 3 3 3 3 3 3 3 2 3 3 3 3 3 3 3 3 4 4 4 4 5 5 5 5 5
5 5 5 4 4 4 4 4 4 3 3 3 3 2 2 2 2 2 2 2 2 2 2 2 2 2 3 3 3 3 3 3 4 4 4 4 4 4
4 4 4 4 3 3 3 3 3 3 3 3 3 2 2 2 2 1 1 1 1 1 1 1 1 2 2 2 2 2 2 3 3 3 3 3 3 3
3 3 3 3 3 3 3 3 3 3 3 3 2 2 1 1 1 1 1 1 1 1 1 1 1 1 1 1 1 2 2 2 2 2 2 2 2 2
2 2 2 2 2 2 3 3 3 3 2 2 2 1 1 1 1 1 0 0 0 0 0 0 0 1 1 1 1 1 1 1 1 2 2 2 2 2
2 2 2 2 2 2 2 2 2 2 2 2 2 1 1 1 0 0 0 -0 -0 -0 -0 -0 -0 -0 -0 0 0 0 0 1 1 1 1 1 1 1
2 2 2 2 2 2 2 2 2 2 2 2 1 1 1 0 -0 -0 -0 -0 -1 -1 -1 -0 -1 -1 -1 -1 -1 -1 -0 -0 -0 -0 -0 0 0 0
2 2 2 2 1 2 2 2 2 2 2 1 1 1 0 -0 -0 -1 -1 -1 -1 -1 -1 -1 -1 -1 -1 -1 -1 -1 -1 -1 -1 -1 -1 -1 -1 -1
1 1 1 1 1 1 1 1 2 1 1 1 1 0 0 -0 -1 -1 -1 -1 -1 -1 -1 -2 -2 -1 -1 -2 -2 -2 -2 -2 -2 -2 -2 -2 -2 -2
1 1 1 1 1 1 1 1 1 1 1 0 0 0 -0 -1 -1 -1 -1 -2 -2 -2 -2 -2 -2 -2 -2 -2 -2 -3 -3 -3 -3 -3 -2 -2 -2 -2
1 1 1 1 1 1 1 1 0 0 0 0 -0 -0 -1 -1 -1 -1 -2 -2 -2 -3 -3 -3 -3 -3 -3 -3 -3 -3 -3 -3 -3 -3 -3 -3 -3 -3
1 0 0 0 0 0 0 0 0 0 0 -0 -0 -1 -1 -1 -1 -2 -2 -2 -3 -3 -3 -3 -3 -3 -4 -3 -3 -3 -3 -4 -3 -3 -3 -3 -3 -3
0 -0 -0 -0 -0 -0 -0 -0 -0 -0 -0 -0 -0 -1 -1 -2 -2 -2 -2 -3 -3 -3 -3 -4 -4 -4 -4 -4 -4 -3 -3 -3 -4 -4 -4 -4 -4 -4
-0 -0 -1 -1 -0 -0 -1 -1 -1 -1 -1 -1 -1 -1 -2 -2 -2 -2 -3 -3 -3 -3 -4 -4 -4 -4 -4 -4 -4 -4 -4 -4 -4 -5 -4 -4 -4 -4
-1 -1 -1 -1 -1 -1 -1 -1 -1 -1 -1 -1 -1 -2 -2 -2 -3 -3 -3 -3 -3 -3 -4 -5 -5 -5 -5 -5 -4 -4 -4 -5 -5 -5 -5 -4 -4 -5
-1 -1 -1 -1 -1 -1 -1 -1 -1 -1 -1 -2 -2 -2 -2 -3 -3 -3 -4 -4 -4 -4 -4 -5 -5 -5 -5 -5 -5 -4 -5 -5 -5 -6 -6 -5 -4 -5
-2 -1 -1 -1 -1 -1 -1 -1 -1 -2 -2 -2 -2 -2 -3 -3 -3 -4 -4 -4 -4 -4 -5 -5 -6 -6 -6 -5 -5 -5 -5 -6 -6 -6 -6 -6 -5 -4
-1 -1 -1 -1 -1 -1 -1 -2 -2 -2 -3 -3 -3 -3 -3 -4 -4 -4 -4 -4 -5 -5 -5 -5 -6 -6 -7 -7 -6 -5 -6 -7 -7 -7 -7 -7 -6 -5
-1 -1 -1 -1 -1 -1 -2 -2 -2 -3 -3 -3 -3 -3 -4 -4 -4 -4 -5 -5 -5 -5 -5 -5 -6 -7 -8 -8 -7 -5 -6 -7 -8 -8 -7 -7 -6 -5
-1 -1 -1 -1 -1 -2 -2 -2 -3 -3 -3 -3 -3 -4 -4 -4 -5 -5 -5 -5 -6 -6 -6 -6 -7 -7 -8 -8 -7 -6 -6 -7 -7 -8 -8 -8 -8 -8
-1 -1 -2 -2 -2 -2 -2 -3 -3 -3 -3 -3 -4 -4 -4 -5 -5 -5 -6 -6 -6 -6 -6 -7 -7 -8 -8 -8 -8 -7 -7 -7 -7 -7 -7 -8 -8 -8
Wind_Speed
1 1 1 1 1 1 1 1 2 3 3 3 2 2 3 5 7 8 8 10 10 10 10 11 11 12 12 13 13 12 11 9 8 6 2 1 6 9
1 2 2 1 1 1 1 1 1 2 2 2 2 1 3 3 6 7 8 9 10 9 9 10 10 10 11 12 13 13 11 10 9 9 6 4 1 3
2 2 2 2 2 2 2 1 1 0 2 2 2 1 2 2 4 6 7 8 8 9 9 9 9 9 10 11 12 12 13 12 10 10 9 7 5 3
2 3 2 2 3 2 2 2 1 1 2 3 2 1 2 1 2 3 5 6 7 8 9 8 8 8 9 10 11 11 12 12 12 10 9 9 8 7
3 3 3 3 3 2 2 2 2 2 1 3 2 1 1 1 2 2 3 5 5 8 8 8 8 8 8 9 10 11 11 11 11 11 10 9 9 9
4 3 3 3 3 2 2 2 2 2 3 3 3 2 2 2 2 2 2 3 3 6 8 8 8 9 9 9 9 10 10 10 10 10 10 10 9 9
4 3 3 3 4 3 2 1 2 2 2 3 2 2 1 1 1 1 1 2 2 3 4 5 7 7 8 8 8 8 8 8 8 8 8 7 7 7
4 3 2 3 3 3 4 4 3 3 3 3 2 2 2 1 1 1 1 1 2 3 3 3 4 3 6 8 7 6 7 7 7 6 6 6 6 5
4 3 2 2 3 3 4 5 4 4 3 4 4 3 3 3 2 1 0 1 2 2 2 2 3 3 5 8 7 5 6 6 6 6 5 5 5 4
4 4 4 2 2 3 3 3 3 3 2 3 4 4 3 3 3 3 2 1 1 1 1 1 3 2 4 7 7 5 5 6 6 6 6 5 5 4
4 4 5 4 5 6 4 3 1 1 2 4 5 4 4 4 5 3 2 1 1 1 2 1 2 3 3 3 6 7 7 7 7 7 7 6 6 5
3 4 7 7 7 6 5 4 3 2 1 1 1 2 2 1 3 3 3 2 1 2 1 1 2 3 3 3 3 6 7 7 8 8 8 8 7 5
4 4 5 9 9 8 6 5 6 4 3 3 1 1 1 1 2 3 4 3 3 3 1 1 0 1 1 3 4 3 4 5 7 8 9 8 7 5
5 5 6 10 10 9 6 7 8 5 3 3 2 2 2 2 2 3 4 4 4 4 4 2 2 2 1 2 4 3 4 5 5 5 7 7 8 8
6 9 10 12 10 7 9 9 7 4 3 3 4 4 3 3 3 2 2 2 3 5 6 7 4 3 3 4 4 3 4 3 4 3 4 5 6 7
7 9 12 12 9 8 7 6 4 4 4 5 4 3 3 3 3 3 3 2 1 3 4 6 8 5 4 6 6 7 5 4 3 3 5 6 8 9
5 4 4 4 5 5 4 5 4 4 5 4 4 4 4 4 4 3 3 3 3 2 2 2 5 8 9 6 6 8 7 6 6 5 5 6 5 8
9 5 7 7 8 8 7 6 6 7 6 6 5 5 5 5 5 4 3 4 5 4 4 3 2 2 3 6 11 9 7 6 5 5 4 5 7 6
10 8 8 8 8 8 7 7 7 7 6 6 7 6 6 5 5 5 5 5 5 5 5 4 3 3 3 5 4 9 6 4 3 4 5 5 7 7
8 9 9 9 9 8 8 8 7 6 6 6 7 6 7 6 6 6 6 6 6 5 5 5 5 6 6 5 4 4 8 7 5 5 5 5 7 12
10 10 10 9 9 9 8 8 8 7 7 7 7 8 7 7 7 7 7 10 8 6 7 7 7 10 5 3 6 6 5 12 11 7 5 5 6 5
10 10 10 9 9 9 9 8 8 8 8 8 8 8 8 7 8 9 8 8 8 8 8 6 4 4 5 7 10 9 7 6 11 17 17 15 6 4
9 9 9 8 9 8 8 9 10 9 9 9 8 8 8 8 8 8 8 8 7 7 7 5 4 5 7 8 9 10 11 9 7 8 10 17 21 26
Wind_Direction
66 71 77 50 31 7 328 242 211 215 203 149 126 47 42 48 44 40 33 30 34 39 38 33 30 28 26 25 24 22 23 22 21 13 357 245 217 211
87 92 83 65 53 35 10 333 261 210 189 124 121 101 51 54 49 40 35 34 29 36 36 32 29 27 27 27 25 26 26 25 27 28 35 41 88 185
92 104 87 71 62 31 29 40 38 119 171 117 100 103 75 51 41 38 37 34 25 30 31 29 29 28 27 27 26 29 30 30 30 33 40 44 51 80
109 107 97 87 71 47 46 44 37 26 139 141 122 114 93 70 47 34 28 27 22 23 24 25 26 32 33 31 30 30 30 32 34 36 40 45 51 63
119 119 110 104 84 60 57 49 28 35 73 126 126 103 85 55 45 28 27 16 20 19 20 23 29 37 40 37 33 30 29 31 35 40 42 43 49 54
107 110 108 109 113 99 74 54 58 66 76 102 108 98 81 47 61 36 17 7 359 6 12 19 24 31 32 33 30 28 29 31 34 38 41 44 44 45
106 98 105 118 127 130 119 106 103 100 99 103 107 98 87 66 60 17 13 339 346 2 350 3 11 17 15 14 16 22 25 27 30 33 35 37 38 38
138 118 99 78 93 91 95 105 127 136 143 133 128 142 153 154 131 59 46 22 317 343 1 341 6 0 354 355 2 14 21 24 25 26 26 25 23 22
161 162 160 142 95 67 71 63 55 79 133 150 152 168 171 182 160 133 151 200 253 306 351 323 348 338 340 349 355 15 24 23 19 15 10 5 1 359
177 177 172 175 182 155 121 86 51 39 82 113 147 166 177 178 177 175 185 216 294 343 21 315 334 324 326 341 359 15 16 11 8 3 356 348 341 336
198 195 190 197 215 186 156 150 109 12 98 131 140 156 172 175 162 127 113 81 337 326 9 18 332 324 318 318 347 7 9 3 360 356 349 340 327 322
210 218 214 209 219 201 173 176 192 216 194 118 95 84 74 93 142 149 154 148 184 266 336 41 357 360 333 311 324 344 354 355 355 348 341 332 324 326
205 214 227 224 223 219 201 193 214 203 187 184 184 187 144 133 133 151 163 158 175 229 230 101 60 14 320 306 314 323 336 333 333 332 335 333 329 325
207 208 219 227 227 228 220 215 223 201 167 181 199 210 208 207 201 190 192 197 205 221 222 185 190 190 223 296 292 310 315 309 309 311 323 331 329 321
212 216 220 226 228 232 233 230 223 190 181 203 216 220 215 203 182 182 195 216 250 254 245 228 208 207 206 237 269 288 308 300 293 294 307 310 302 302
216 223 225 228 225 223 233 238 211 196 201 213 218 211 184 178 191 189 193 195 273 292 263 234 224 207 230 244 254 265 260 274 290 286 295 290 284 276
190 194 203 209 214 213 218 222 218 218 225 207 205 205 204 204 209 195 192 188 210 242 273 268 243 236 233 235 253 257 259 261 264 276 285 288 275 263
208 209 215 218 222 223 225 225 221 221 219 212 211 211 212 212 215 204 198 204 226 239 243 246 257 291 284 257 234 248 254 257 258 254 250 275 285 269
217 219 221 222 224 223 223 222 224 220 210 209 214 214 212 212 212 215 214 221 235 241 238 223 209 208 251 278 273 226 220 241 255 257 246 251 274 282
218 222 225 224 223 223 223 224 225 219 212 214 213 213 210 210 214 219 218 222 234 240 241 226 216 215 226 243 260 261 228 228 245 261 265 266 272 279
223 226 227 225 224 223 224 223 221 221 216 211 215 214 212 210 219 221 222 233 235 236 242 241 234 236 231 237 261 261 239 240 241 240 250 276 287 277
227 229 228 226 224 224 224 222 223 224 220 219 220 217 212 210 219 221 222 227 231 234 242 244 221 216 208 234 255 268 274 262 257 263 261 254 250 253
229 229 230 228 226 225 224 222 222 225 222 220 221 218 212 214 219 221 223 226 230 234 239 244 228 220 231 238 254 265 272 275 274 272 265 261 258 258
Height
1512 1512 1511 1511 1510 1510 1511 1511 1513 1512 1512 1511 1511 1511 1511 1511 1510 1509 1509 1508 1507 1506 1505 1504 1504 1503 1502 1502 1501 1501 1501 1501 1501 1502 1503 1504 1506 1508
1508 1507 1507 1506 1506 1506 1506 1506 1507 1508 1508 1507 1507 1508 1508 1507 1507 1506 1505 1505 1504 1503 1502 1502 1501 1501 1500 1500 1499 1499 1498 1498 1499 1499 1500 1501 1502 1504
1504 1503 1503 1502 1502 1502 1502 1502 1502 1503 1504 1504 1504 1504 1504 1504 1503 1503 1502 1502 1501 1500 1500 1499 1499 1498 1498 1497 1497 1496 1496 1496 1496 1497 1497 1499 1500 1501
1500 1500 1499 1499 1498 1498 1498 1498 1498 1499 1500 1500 1501 1501 1501 1501 1500 1500 1499 1499 1498 1498 1497 1497 1496 1496 1495 1495 1495 1494 1494 1494 1494 1495 1495 1497 1498 1499
1497 1497 1496 1496 1495 1495 1495 1495 1495 1495 1496 1497 1497 1498 1498 1498 1497 1497 1497 1496 1496 1495 1495 1494 1494 1493 1493 1493 1492 1492 1492 1492 1492 1493 1493 1494 1496 1497
1494 1494 1493 1493 1493 1493 1492 1492 1492 1493 1493 1494 1494 1495 1495 1495 1495 1494 1494 1494 1493 1493 1492 1492 1492 1491 1491 1490 1490 1490 1490 1490 1490 1490 1491 1492 1493 1494
1491 1491 1491 1490 1490 1490 1490 1490 1490 1491 1491 1491 1491 1492 1492 1492 1492 1492 1492 1491 1491 1491 1490 1490 1490 1489 1489 1489 1488 1488 1488 1488 1488 1488 1489 1490 1491 1492
1488 1488 1488 1488 1488 1488 1488 1488 1489 1489 1489 1489 1489 1489 1490 1490 1490 1489 1489 1489 1489 1489 1488 1488 1488 1487 1487 1487 1486 1486 1486 1486 1486 1486 1486 1487 1488 1488
1486 1486 1486 1486 1486 1487 1487 1487 1487 1487 1487 1487 1487 1487 1488 1488 1488 1487 1487 1487 1487 1486 1486 1486 1486 1485 1485 1484 1484 1484 1484 1483 1483 1483 1484 1484 1484 1485
1483 1484 1484 1484 1485 1485 1485 1485 1485 1485 1485 1485 1485 1485 1486 1486 1486 1486 1485 1485 1485 1484 1484 1484 1483 1483 1482 1482 1481 1481 1481 1481 1481 1481 1481 1481 1481 1481
1481 1481 1482 1482 1483 1483 1483 1483 1483 1483 1483 1483 1483 1483 1484 1484 1484 1484 1483 1483 1483 1483 1482 1482 1481 1480 1480 1479 1479 1479 1479 1479 1478 1478 1478 1478 1478 1478
1478 1479 1480 1480 1480 1480 1481 1481 1481 1481 1482 1481 1482 1481 1481 1481 1481 1481 1481 1481 1480 1480 1479 1479 1479 1478 1477 1477 1477 1477 1476 1476 1475 1475 1474 1474 1474 1474
1476 1476 1477 1477 1478 1478 1478 1479 1479 1479 1479 1479 1479 1479 1479 1479 1479 1479 1479 1479 1478 1478 1478 1477 1476 1476 1475 1475 1474 1474 1473 1473 1472 1471 1471 1471 1470 1470
1473 1474 1474 1474 1475 1475 1476 1476 1476 1476 1477 1477 1477 1477 1477 1477 1477 1476 1476 1476 1475 1475 1474 1474 1473 1473 1472 1471 1470 1470 1470 1469 1468 1467 1467 1466 1466 1466
1469 1470 1470 1471 1471 1472 1472 1473 1473 1473 1473 1473 1474 1474 1474 1474 1473 1473 1473 1472 1472 1471 1471 1470 1470 1469 1468 1467 1466 1465 1465 1465 1464 1463 1462 1462 1461 1461
1465 1466 1467 1467 1467 1468 1469 1469 1469 1469 1469 1470 1470 1470 1470 1470 1470 1469 1469 1469 1468 1468 1467 1466 1466 1465 1464 1463 1462 1461 1461 1460 1459 1458 1457 1457 1456 1456
1461 1461 1462 1462 1463 1463 1464 1464 1465 1465 1465 1465 1465 1466 1465 1465 1465 1465 1465 1464 1464 1464 1463 1463 1462 1461 1460 1459 1457 1456 1456 1455 1454 1453 1452 1451 1451 1451
1456 1455 1456 1457 1458 1458 1459 1459 1460 1460 1460 1460 1460 1461 1461 1460 1460 1460 1460 1459 1459 1459 1458 1458 1457 1456 1455 1454 1454 1451 1451 1450 1449 1448 1446 1445 1444 1445
1449 1449 1450 1451 1452 1453 1453 1454 1454 1455 1455 1455 1455 1455 1455 1455 1455 1454 1454 1454 1454 1454 1453 1453 1452 1451 1449 1448 1448 1447 1446 1445 1444 1443 1441 1439 1437 1438
1442 1443 1444 1445 1446 1446 1447 1447 1448 1448 1448 1448 1449 1449 1449 1449 1448 1448 1448 1448 1448 1448 1447 1447 1447 1446 1445 1443 1441 1440 1441 1440 1438 1437 1435 1433 1431 1431
1436 1437 1437 1438 1439 1439 1440 1440 1441 1441 1441 1442 1442 1442 1442 1442 1442 1442 1442 1442 1441 1441 1441 1441 1441 1440 1439 1437 1435 1433 1435 1434 1432 1431 1429 1427 1424 1423
1429 1430 1430 1431 1431 1432 1432 1433 1433 1433 1434 1434 1434 1435 1435 1435 1435 1435 1435 1435 1435 1434 1434 1435 1435 1434 1432 1431 1429 1428 1427 1427 1426 1425 1423 1421 1419 1416
1422 1422 1422 1423 1423 1424 1424 1424 1425 1425 1426 1426 1426 1427 1427 1427 1427 1428 1428 1428 1428 1428 1428 1427 1427 1426 1425 1424 1422 1421 1420 1419 1418 1417 1416 1415 1413 1411